• In Deutschland
  • Länderverzeichnis
  • Für 7 Tage
  • Wassertemperatur
  • Satellitenkarten
  • Wetterkarte
  • Widgets
  • user-avatar
    Anmelden

    Stündliche Wetter New Bedford

    Heute, 26 September, Dienstag

    Zeit Temperatur Niederschläge Wind Luftdruck Luftfeuchtigkeit
    00:00 +21°C° 0 mm 1 m/S 762 mmHg 97%
    01:00 +22°C° 0 mm 1 m/S 762 mmHg 96%
    02:00 +22°C° 0 mm 1 m/S 762 mmHg 96%
    03:00 +20°C° 0 mm 0 m/S 762 mmHg 96%
    04:00 +20°C° 0 mm 0 m/S 762 mmHg 96%
    05:00 +20°C° 0 mm 0 m/S 762 mmHg 95%
    06:00 +20°C° 0 mm 0 m/S 762 mmHg 93%
    07:00 +20°C° 0 mm 0 m/S 762 mmHg 92%
    08:00 +23°C° 0 mm 0 m/S 762 mmHg 83%
    09:00 +27°C° 0 mm 1 m/S 762 mmHg 74%
    10:00 +29°C° 0 mm 1 m/S 762 mmHg 65%
    11:00 +30°C° 0 mm 1 m/S 762 mmHg 62%
    12:00 +30°C° 0 mm 1 m/S 761 mmHg 60%
    13:00 +31°C° 0 mm 2 m/S 761 mmHg 57%
    14:00 +30°C° 0 mm 2 m/S 761 mmHg 60%
    15:00 +29°C° 0 mm 2 m/S 760 mmHg 64%
    16:00 +28°C° 0 mm 2 m/S 760 mmHg 67%
    17:00 +26°C° 0 mm 2 m/S 760 mmHg 75%
    18:00 +24°C° 0 mm 2 m/S 760 mmHg 83%
    19:00 +21°C° 0 mm 2 m/S 760 mmHg 90%
    20:00 +21°C° 0 mm 2 m/S 760 mmHg 92%
    21:00 +21°C° 0 mm 2 m/S 760 mmHg 94%
    22:00 +21°C° 0 mm 1 m/S 760 mmHg 95%
    23:00 +21°C° 0 mm 1 m/S 760 mmHg 95%

    Morgen, 27 September, Mittwoch

    Zeit Temperatur Niederschläge Wind Luftdruck Luftfeuchtigkeit
    00:00 +21°C° 0 mm 1 m/S 760 mmHg 96%
    01:00 +21°C° 0 mm 1 m/S 760 mmHg 96%
    02:00 +21°C° 0 mm 1 m/S 760 mmHg 96%
    03:00 +21°C° 0 mm 1 m/S 759 mmHg 96%
    04:00 +21°C° 0 mm 1 m/S 759 mmHg 96%
    05:00 +22°C° 0 mm 1 m/S 759 mmHg 94%
    06:00 +22°C° 0 mm 1 m/S 759 mmHg 92%
    07:00 +23°C° 0 mm 1 m/S 759 mmHg 90%
    08:00 +25°C° 0 mm 2 m/S 759 mmHg 83%
    09:00 +27°C° 0 mm 2 m/S 759 mmHg 76%
    10:00 +29°C° 0 mm 2 m/S 758 mmHg 69%
    11:00 +29°C° 0,2 mm 3 m/S 758 mmHg 70%
    12:00 +29°C° 0,2 mm 3 m/S 758 mmHg 72%
    13:00 +29°C° 0,2 mm 4 m/S 757 mmHg 73%
    14:00 +28°C° 0,1 mm 3 m/S 757 mmHg 74%
    15:00 +28°C° 0,1 mm 3 m/S 756 mmHg 74%
    16:00 +28°C° 0,1 mm 3 m/S 756 mmHg 74%
    17:00 +26°C° 0 mm 3 m/S 756 mmHg 81%
    18:00 +25°C° 0 mm 3 m/S 756 mmHg 88%
    19:00 +22°C° 0 mm 3 m/S 756 mmHg 96%
    20:00 +22°C° 0 mm 3 m/S 756 mmHg 96%
    21:00 +22°C° 0 mm 3 m/S 755 mmHg 97%
    22:00 +23°C° 0 mm 2 m/S 755 mmHg 98%
    23:00 +23°C° 0 mm 2 m/S 755 mmHg 98%

    übermorgen, 28 September, Donnerstag

    Zeit Temperatur Niederschläge Wind Luftdruck Luftfeuchtigkeit
    00:00 +23°C° 0 mm 2 m/S 754 mmHg 98%
    01:00 +23°C° 0 mm 2 m/S 754 mmHg 98%
    02:00 +23°C° 0,1 mm 2 m/S 754 mmHg 98%
    03:00 +23°C° 0,1 mm 2 m/S 754 mmHg 98%
    04:00 +23°C° 0,1 mm 1 m/S 753 mmHg 98%
    05:00 +23°C° 0,5 mm 2 m/S 753 mmHg 96%
    06:00 +23°C° 0,5 mm 2 m/S 753 mmHg 94%
    07:00 +23°C° 0,5 mm 2 m/S 753 mmHg 92%
    08:00 +25°C° 0,2 mm 3 m/S 753 mmHg 81%
    09:00 +26°C° 0,2 mm 3 m/S 753 mmHg 71%
    10:00 +27°C° 0,2 mm 4 m/S 753 mmHg 60%
    11:00 +28°C° 0 mm 5 m/S 753 mmHg 54%
    12:00 +28°C° 0 mm 5 m/S 753 mmHg 48%
    13:00 +28°C° 0 mm 6 m/S 753 mmHg 43%
    14:00 +27°C° 0 mm 6 m/S 753 mmHg 41%
    15:00 +26°C° 0 mm 6 m/S 753 mmHg 39%
    16:00 +24°C° 0 mm 7 m/S 753 mmHg 37%
    17:00 +23°C° 0 mm 7 m/S 753 mmHg 41%
    18:00 +21°C° 0 mm 6 m/S 754 mmHg 46%
    19:00 +19°C° 0 mm 6 m/S 755 mmHg 50%
    20:00 +17°C° 0 mm 6 m/S 755 mmHg 51%
    21:00 +16°C° 0 mm 7 m/S 756 mmHg 52%
    22:00 +15°C° 0 mm 7 m/S 756 mmHg 53%
    23:00 +15°C° 0 mm 7 m/S 756 mmHg 55%

    29 September, Freitag

    Zeit Temperatur Niederschläge Wind Luftdruck Luftfeuchtigkeit
    00:00 +14°C° 0 mm 6 m/S 757 mmHg 56%
    01:00 +13°C° 0 mm 6 m/S 757 mmHg 58%
    02:00 +13°C° 0 mm 6 m/S 757 mmHg 59%
    03:00 +12°C° 0 mm 5 m/S 757 mmHg 60%
    04:00 +12°C° 0 mm 5 m/S 757 mmHg 61%
    05:00 +12°C° 0 mm 5 m/S 758 mmHg 60%
    06:00 +10°C° 0 mm 5 m/S 758 mmHg 59%
    07:00 +10°C° 0 mm 5 m/S 759 mmHg 58%
    08:00 +13°C° 0 mm 5 m/S 759 mmHg 52%
    09:00 +14°C° 0 mm 5 m/S 760 mmHg 45%
    10:00 +16°C° 0 mm 5 m/S 760 mmHg 38%
    11:00 +17°C° 0 mm 5 m/S 760 mmHg 35%
    12:00 +19°C° 0 mm 4 m/S 760 mmHg 33%
    13:00 +20°C° 0 mm 4 m/S 759 mmHg 30%
    14:00 +20°C° 0 mm 4 m/S 759 mmHg 31%
    15:00 +20°C° 0 mm 3 m/S 759 mmHg 32%
    16:00 +21°C° 0 mm 3 m/S 759 mmHg 33%
    17:00 +19°C° 0 mm 2 m/S 760 mmHg 38%
    18:00 +17°C° 0 mm 2 m/S 761 mmHg 42%
    19:00 +15°C° 0 mm 2 m/S 761 mmHg 47%
    20:00 +15°C° 0 mm 2 m/S 761 mmHg 48%
    21:00 +14°C° 0 mm 2 m/S 762 mmHg 50%
    22:00 +14°C° 0 mm 2 m/S 762 mmHg 52%
    23:00 +13°C° 0 mm 2 m/S 762 mmHg 54%

    30 September, Samstag

    Zeit Temperatur Niederschläge Wind Luftdruck Luftfeuchtigkeit
    00:00 +12°C° 0 mm 3 m/S 762 mmHg 55%
    01:00 +12°C° 0 mm 3 m/S 762 mmHg 57%
    02:00 +11°C° 0,8 mm 3 m/S 763 mmHg 68%
    03:00 +11°C° 0,8 mm 4 m/S 763 mmHg 79%
    04:00 +10°C° 0,8 mm 4 m/S 763 mmHg 90%
    05:00 +10°C° 1 mm 4 m/S 764 mmHg 89%
    06:00 +10°C° 1 mm 4 m/S 764 mmHg 88%
    07:00 +11°C° 1 mm 4 m/S 765 mmHg 88%
    08:00 +12°C° 0 mm 4 m/S 765 mmHg 77%
    09:00 +14°C° 0 mm 5 m/S 766 mmHg 66%
    10:00 +15°C° 0 mm 5 m/S 766 mmHg 55%
    11:00 +16°C° 0 mm 5 m/S 766 mmHg 51%
    12:00 +17°C° 0 mm 5 m/S 766 mmHg 47%
    13:00 +17°C° 0 mm 5 m/S 766 mmHg 44%
    14:00 +17°C° 0 mm 5 m/S 766 mmHg 46%
    15:00 +16°C° 0 mm 5 m/S 766 mmHg 48%
    16:00 +15°C° 0 mm 5 m/S 767 mmHg 51%
    17:00 +14°C° 0 mm 4 m/S 767 mmHg 58%
    18:00 +13°C° 0 mm 4 m/S 768 mmHg 65%
    19:00 +11°C° 0 mm 3 m/S 768 mmHg 73%
    20:00 +11°C° 0 mm 3 m/S 769 mmHg 75%
    21:00 +10°C° 0 mm 2 m/S 769 mmHg 77%
    22:00 +10°C° 0 mm 2 m/S 769 mmHg 79%
    23:00 +9°C° 0 mm 2 m/S 769 mmHg 80%

    1 Oktober, Sonntag

    Zeit Temperatur Niederschläge Wind Luftdruck Luftfeuchtigkeit
    00:00 +9°C° 0 mm 2 m/S 769 mmHg 82%
    01:00 +9°C° 0 mm 2 m/S 769 mmHg 83%
    02:00 +8°C° 0 mm 2 m/S 770 mmHg 82%
    03:00 +8°C° 0 mm 2 m/S 770 mmHg 81%
    04:00 +8°C° 0 mm 3 m/S 770 mmHg 80%
    05:00 +8°C° 0 mm 2 m/S 770 mmHg 74%
    06:00 +9°C° 0 mm 2 m/S 771 mmHg 69%
    07:00 +9°C° 0 mm 2 m/S 771 mmHg 63%
    08:00 +13°C° 0 mm 2 m/S 771 mmHg 54%
    09:00 +15°C° 0 mm 2 m/S 771 mmHg 46%
    10:00 +19°C° 0 mm 1 m/S 771 mmHg 38%
    11:00 +20°C° 0 mm 1 m/S 771 mmHg 35%
    12:00 +21°C° 0 mm 1 m/S 771 mmHg 32%
    13:00 +22°C° 0 mm 1 m/S 770 mmHg 29%
    14:00 +21°C° 0 mm 1 m/S 770 mmHg 33%
    15:00 +19°C° 0 mm 2 m/S 770 mmHg 36%
    16:00 +18°C° 0 mm 2 m/S 770 mmHg 40%
    17:00 +17°C° 0 mm 2 m/S 770 mmHg 47%
    18:00 +15°C° 0 mm 2 m/S 770 mmHg 55%
    19:00 +13°C° 0 mm 2 m/S 771 mmHg 62%
    20:00 +13°C° 0 mm 2 m/S 771 mmHg 63%
    21:00 +12°C° 0 mm 2 m/S 771 mmHg 64%
    22:00 +12°C° 0 mm 2 m/S 771 mmHg 66%
    23:00 +12°C° 0 mm 2 m/S 771 mmHg 65%
    Mehr zeigen